Time,TemperatureF,DewpointF,PressureIn,WindDirection,WindDirectionDegrees,WindSpeedMPH,WindSpeedGustMPH,Humidity,HourlyPrecipIn,Conditions,Clouds,dailyrainin,SoftwareType,DateUTC
2013-06-03 00:03:00,40.3,29.1,30.05,North,4,0.0,0.0,64,0.00,,---,0.00,VWS V13.01,2013-06-03 05:03:00,
2013-06-03 00:08:00,40.1,28.9,30.05,North,4,0.0,0.0,64,0.00,,---,0.00,VWS V13.01,2013-06-03 05:08:00,
2013-06-03 00:13:00,39.9,28.8,30.05,North,4,0.0,0.0,64,0.00,,---,0.00,VWS V13.01,2013-06-03 05:13:00,
2013-06-03 00:18:00,39.7,29.0,30.05,North,4,0.0,0.0,65,0.00,,---,0.00,VWS V13.01,2013-06-03 05:18:00,
2013-06-03 00:23:00,39.6,29.1,30.05,North,4,0.0,0.0,66,0.00,,---,0.00,VWS V13.01,2013-06-03 05:23:00,
2013-06-03 00:28:00,39.6,29.5,30.05,North,4,0.0,0.0,67,0.00,,---,0.00,VWS V13.01,2013-06-03 05:28:00,
2013-06-03 00:33:00,39.6,29.5,30.05,North,4,0.0,0.0,67,0.00,,---,0.00,VWS V13.01,2013-06-03 05:33:00,
2013-06-03 00:38:00,39.4,29.4,30.05,North,4,0.0,0.0,67,0.00,,---,0.00,VWS V13.01,2013-06-03 05:38:00,
2013-06-03 00:43:00,39.2,29.2,30.05,North,4,0.0,0.0,67,0.00,,---,0.00,VWS V13.01,2013-06-03 05:43:00,
2013-06-03 00:48:00,39.0,29.0,30.05,North,4,0.0,0.0,67,0.00,,---,0.00,VWS V13.01,2013-06-03 05:48:00,
2013-06-03 00:54:00,38.8,29.2,30.05,North,4,0.0,0.0,68,0.00,,---,0.00,VWS V13.01,2013-06-03 05:54:00,
2013-06-03 00:59:00,38.8,29.2,30.05,North,4,0.0,0.0,68,0.00,,---,0.00,VWS V13.01,2013-06-03 05:59:00,
2013-06-03 01:04:00,38.7,29.0,30.05,North,4,0.0,0.0,68,0.00,,---,0.00,VWS V13.01,2013-06-03 06:04:00,
2013-06-03 01:09:00,38.5,29.2,30.05,North,4,0.0,0.0,69,0.00,,---,0.00,VWS V13.01,2013-06-03 06:09:00,
2013-06-03 01:14:00,38.5,29.2,30.05,North,4,0.0,0.0,69,0.00,,---,0.00,VWS V13.01,2013-06-03 06:14:00,
2013-06-03 01:18:00,38.5,29.2,30.05,North,4,0.0,0.0,69,0.00,,---,0.00,VWS V13.01,2013-06-03 06:18:00,
2013-06-03 01:23:00,38.3,29.4,30.05,North,4,0.0,0.0,70,0.00,,---,0.00,VWS V13.01,2013-06-03 06:23:00,
2013-06-03 01:29:00,38.3,29.0,30.05,North,4,0.0,0.0,69,0.00,,---,0.00,VWS V13.01,2013-06-03 06:29:00,
2013-06-03 01:34:00,38.3,29.4,30.05,North,4,0.0,0.0,70,0.00,,---,0.00,VWS V13.01,2013-06-03 06:34:00,
2013-06-03 01:39:00,38.1,29.2,30.05,North,4,0.0,0.0,70,0.00,,---,0.00,VWS V13.01,2013-06-03 06:39:00,
2013-06-03 01:44:00,37.9,28.7,30.05,North,4,0.0,0.0,69,0.00,,---,0.00,VWS V13.01,2013-06-03 06:44:00,
2013-06-03 01:49:00,37.8,28.5,30.05,North,4,0.0,0.0,69,0.00,,---,0.00,VWS V13.01,2013-06-03 06:49:00,
2013-06-03 01:54:00,37.6,28.7,30.05,North,4,0.0,0.0,70,0.00,,---,0.00,VWS V13.01,2013-06-03 06:54:00,
2013-06-03 01:59:00,37.6,29.0,30.05,North,4,0.0,0.0,71,0.00,,---,0.00,VWS V13.01,2013-06-03 06:59:00,
2013-06-03 02:04:00,37.8,29.2,30.05,North,4,0.0,0.0,71,0.00,,---,0.00,VWS V13.01,2013-06-03 07:04:00,
2013-06-03 02:09:00,37.9,29.4,30.05,North,4,0.0,0.0,71,0.00,,---,0.00,VWS V13.01,2013-06-03 07:09:00,
2013-06-03 02:14:00,37.9,29.0,30.05,North,4,0.0,0.0,70,0.00,,---,0.00,VWS V13.01,2013-06-03 07:14:00,
2013-06-03 02:19:00,37.9,29.0,30.05,North,4,0.0,0.0,70,0.00,,---,0.00,VWS V13.01,2013-06-03 07:19:00,
2013-06-03 02:24:00,37.9,29.0,30.05,North,4,0.0,0.0,70,0.00,,---,0.00,VWS V13.01,2013-06-03 07:24:00,
2013-06-03 02:29:00,37.9,29.0,30.05,North,4,0.0,0.0,70,0.00,,---,0.00,VWS V13.01,2013-06-03 07:29:00,
2013-06-03 02:34:00,38.1,29.6,30.05,North,4,0.0,0.0,71,0.00,,---,0.00,VWS V13.01,2013-06-03 07:34:00,
2013-06-03 02:39:00,38.5,29.6,30.05,North,4,0.0,0.0,70,0.00,,---,0.00,VWS V13.01,2013-06-03 07:39:00,
2013-06-03 02:44:00,38.3,29.0,30.05,North,4,0.0,0.0,69,0.00,,---,0.00,VWS V13.01,2013-06-03 07:44:00,
2013-06-03 02:49:00,38.3,29.0,30.05,North,4,0.0,0.0,69,0.00,,---,0.00,VWS V13.01,2013-06-03 07:49:00,
2013-06-03 02:54:00,38.1,28.9,30.05,North,4,0.0,0.0,69,0.00,,---,0.00,VWS V13.01,2013-06-03 07:54:00,
2013-06-03 02:59:00,38.1,28.9,30.05,North,4,0.0,0.0,69,0.00,,---,0.00,VWS V13.01,2013-06-03 07:59:00,
2013-06-03 03:04:00,37.9,28.7,30.05,North,4,0.0,0.0,69,0.00,,---,0.00,VWS V13.01,2013-06-03 08:04:00,
2013-06-03 03:09:00,37.9,28.7,30.05,North,4,0.0,0.0,69,0.00,,---,0.00,VWS V13.01,2013-06-03 08:09:00,
2013-06-03 03:14:00,38.1,29.2,30.05,North,4,0.0,0.0,70,0.00,,---,0.00,VWS V13.01,2013-06-03 08:14:00,
2013-06-03 03:19:00,38.1,29.2,30.05,North,4,0.0,0.0,70,0.00,,---,0.00,VWS V13.01,2013-06-03 08:19:00,
2013-06-03 03:24:00,38.1,29.2,30.05,North,4,0.0,0.0,70,0.00,,---,0.00,VWS V13.01,2013-06-03 08:24:00,
2013-06-03 03:29:00,38.5,29.6,30.05,North,4,0.0,0.0,70,0.00,,---,0.00,VWS V13.01,2013-06-03 08:29:00,
2013-06-03 03:35:00,38.3,29.0,30.05,North,4,0.0,0.0,69,0.00,,---,0.00,VWS V13.01,2013-06-03 08:35:00,
2013-06-03 03:40:00,38.5,29.2,30.05,North,4,0.0,0.0,69,0.00,,---,0.00,VWS V13.01,2013-06-03 08:40:00,
2013-06-03 03:45:00,38.5,29.2,30.05,North,4,0.0,0.0,69,0.00,,---,0.00,VWS V13.01,2013-06-03 08:45:00,
2013-06-03 03:50:00,38.5,28.9,30.05,North,4,0.0,0.0,68,0.00,,---,0.00,VWS V13.01,2013-06-03 08:50:00,
2013-06-03 03:55:00,38.5,28.9,30.05,North,4,0.0,0.0,68,0.00,,---,0.00,VWS V13.01,2013-06-03 08:55:00,
2013-06-03 04:00:00,38.5,28.5,30.05,North,4,0.0,0.0,67,0.00,,---,0.00,VWS V13.01,2013-06-03 09:00:00,
2013-06-03 04:05:00,38.5,28.5,30.05,North,4,0.0,0.0,67,0.00,,---,0.00,VWS V13.01,2013-06-03 09:05:00,
2013-06-03 04:10:00,38.1,27.8,30.05,North,350,3.1,3.1,66,0.00,,---,0.00,VWS V13.01,2013-06-03 09:10:00,
2013-06-03 04:15:00,37.9,27.2,30.05,NE,51,3.1,3.1,65,0.00,,---,0.00,VWS V13.01,2013-06-03 09:15:00,
2013-06-03 04:20:00,37.4,27.1,30.05,NNE,29,3.1,3.6,66,0.00,,---,0.00,VWS V13.01,2013-06-03 09:20:00,
2013-06-03 04:25:00,36.7,26.4,30.05,NNE,13,2.7,4.0,66,0.00,,---,0.00,VWS V13.01,2013-06-03 09:25:00,
2013-06-03 04:30:00,36.3,26.4,30.05,North,3,4.5,4.5,67,0.00,,---,0.00,VWS V13.01,2013-06-03 09:30:00,
2013-06-03 04:35:00,36.3,26.8,30.05,North,9,3.6,3.6,68,0.00,,---,0.00,VWS V13.01,2013-06-03 09:35:00,
2013-06-03 04:40:00,36.5,27.3,30.05,North,8,3.6,4.0,69,0.00,,---,0.00,VWS V13.01,2013-06-03 09:40:00,
2013-06-03 04:45:00,36.9,28.4,30.08,North,8,4.0,4.0,71,0.00,,---,0.00,VWS V13.01,2013-06-03 09:45:00,
2013-06-03 04:50:00,37.0,28.9,30.08,North,8,3.6,4.0,72,0.00,,---,0.00,VWS V13.01,2013-06-03 09:50:00,
2013-06-03 04:55:00,36.9,28.7,30.08,North,8,4.0,4.0,72,0.00,,---,0.00,VWS V13.01,2013-06-03 09:55:00,
2013-06-03 05:01:00,36.7,28.9,30.08,North,8,3.1,4.5,73,0.00,,---,0.00,VWS V13.01,2013-06-03 10:01:00,
2013-06-03 05:06:00,36.3,28.5,30.08,North,8,3.6,3.6,73,0.00,,---,0.00,VWS V13.01,2013-06-03 10:06:00,
2013-06-03 05:11:00,36.1,28.3,30.08,North,8,4.5,4.5,73,0.00,,---,0.00,VWS V13.01,2013-06-03 10:11:00,
2013-06-03 05:16:00,35.6,27.8,30.08,North,8,4.0,4.0,73,0.00,,---,0.00,VWS V13.01,2013-06-03 10:16:00,
2013-06-03 05:21:00,35.8,28.6,30.08,North,8,3.1,4.7,75,0.00,,---,0.00,VWS V13.01,2013-06-03 10:21:00,
2013-06-03 05:26:00,36.1,29.6,30.08,North,8,3.6,4.0,77,0.00,,---,0.00,VWS V13.01,2013-06-03 10:26:00,
2013-06-03 05:31:00,36.1,29.6,30.08,North,8,4.5,4.5,77,0.00,,---,0.00,VWS V13.01,2013-06-03 10:31:00,
2013-06-03 05:37:00,36.3,30.1,30.08,North,8,3.6,4.0,78,0.00,,---,0.00,VWS V13.01,2013-06-03 10:37:00,
2013-06-03 05:42:00,36.7,30.8,30.08,North,8,3.1,3.1,79,0.00,,---,0.00,VWS V13.01,2013-06-03 10:42:00,
2013-06-03 05:47:00,36.5,30.6,30.08,North,8,2.7,3.6,79,0.00,,---,0.00,VWS V13.01,2013-06-03 10:47:00,
2013-06-03 05:52:00,36.1,30.3,30.08,North,8,2.7,4.0,79,0.00,,---,0.00,VWS V13.01,2013-06-03 10:52:00,
2013-06-03 05:57:00,36.0,29.8,30.08,NNE,27,4.0,4.5,78,0.00,,---,0.00,VWS V13.01,2013-06-03 10:57:00,
2013-06-03 06:02:00,36.0,29.8,30.08,North,9,3.1,4.0,78,0.00,,---,0.00,VWS V13.01,2013-06-03 11:02:00,
2013-06-03 06:07:00,36.7,30.8,30.08,North,9,3.6,3.6,79,0.00,,---,0.00,VWS V13.01,2013-06-03 11:07:00,
2013-06-03 06:12:00,37.6,31.7,30.08,North,2,3.1,3.1,79,0.00,,---,0.00,VWS V13.01,2013-06-03 11:12:00,
2013-06-03 06:17:00,38.1,32.2,30.08,North,2,2.7,3.1,79,0.00,,---,0.00,VWS V13.01,2013-06-03 11:17:00,
2013-06-03 06:22:00,38.7,32.7,30.08,North,2,3.1,3.6,79,0.00,,---,0.00,VWS V13.01,2013-06-03 11:22:00,
2013-06-03 06:27:00,38.8,32.9,30.08,North,2,3.1,3.6,79,0.00,,---,0.00,VWS V13.01,2013-06-03 11:27:00,
2013-06-03 06:33:00,39.2,32.9,30.08,North,2,3.6,3.6,78,0.00,,---,0.00,VWS V13.01,2013-06-03 11:33:00,
2013-06-03 06:38:00,39.9,33.3,30.08,North,2,2.7,4.0,77,0.00,,---,0.00,VWS V13.01,2013-06-03 11:38:00,
2013-06-03 06:43:00,40.5,33.5,30.08,NNE,13,3.6,3.6,76,0.00,,---,0.00,VWS V13.01,2013-06-03 11:43:00,
2013-06-03 06:48:00,41.4,33.0,30.08,North,9,0.0,0.0,72,0.00,,---,0.00,VWS V13.01,2013-06-03 11:48:00,
2013-06-03 06:53:00,42.1,31.9,30.08,NNE,33,0.0,0.0,67,0.00,,---,0.00,VWS V13.01,2013-06-03 11:53:00,
2013-06-03 06:58:00,42.4,30.4,30.11,NE,46,0.0,3.6,62,0.00,,---,0.00,VWS V13.01,2013-06-03 11:58:00,
2013-06-03 07:03:00,43.2,29.4,30.11,North,9,0.0,0.0,58,0.00,,---,0.00,VWS V13.01,2013-06-03 12:03:00,
2013-06-03 07:08:00,43.7,28.6,30.11,NE,44,3.6,3.6,55,0.00,,---,0.00,VWS V13.01,2013-06-03 12:08:00,
2013-06-03 07:13:00,44.2,28.2,30.11,ENE,57,0.0,0.0,53,0.00,,---,0.00,VWS V13.01,2013-06-03 12:13:00,
2013-06-03 07:18:00,44.6,28.1,30.11,ESE,104,0.0,0.0,52,0.00,,---,0.00,VWS V13.01,2013-06-03 12:18:00,
2013-06-03 07:24:00,45.0,27.9,30.11,NNE,28,2.7,4.0,51,0.00,,---,0.00,VWS V13.01,2013-06-03 12:24:00,
2013-06-03 07:29:00,45.3,28.3,30.11,NNE,24,2.7,4.0,51,0.00,,---,0.00,VWS V13.01,2013-06-03 12:29:00,
2013-06-03 07:34:00,45.9,27.8,30.11,East,91,0.0,0.0,49,0.00,,---,0.00,VWS V13.01,2013-06-03 12:34:00,
2013-06-03 07:39:00,46.2,28.1,30.11,NE,41,0.0,0.0,49,0.00,,---,0.00,VWS V13.01,2013-06-03 12:39:00,
2013-06-03 07:44:00,46.6,28.0,30.11,ESE,116,0.0,0.0,48,0.00,,---,0.00,VWS V13.01,2013-06-03 12:44:00,
2013-06-03 07:49:00,46.9,26.7,30.11,NE,39,3.1,4.0,45,0.00,,---,0.00,VWS V13.01,2013-06-03 12:49:00,
2013-06-03 07:54:00,47.1,27.4,30.11,East,86,4.0,4.5,46,0.00,,---,0.00,VWS V13.01,2013-06-03 12:54:00,
2013-06-03 07:59:00,47.3,26.5,30.11,ENE,71,0.0,4.0,44,0.00,,---,0.00,VWS V13.01,2013-06-03 12:59:00,
2013-06-03 08:04:00,47.7,26.8,30.11,NNE,22,4.5,4.5,44,0.00,,---,0.00,VWS V13.01,2013-06-03 13:04:00,
2013-06-03 08:09:00,48.0,27.2,30.11,NE,48,4.0,4.0,44,0.00,,---,0.00,VWS V13.01,2013-06-03 13:09:00,
2013-06-03 08:14:00,48.6,27.1,30.11,SE,128,3.1,3.1,43,0.00,,---,0.00,VWS V13.01,2013-06-03 13:14:00,
2013-06-03 08:19:00,49.1,26.4,30.11,East,89,3.6,3.6,41,0.00,,---,0.00,VWS V13.01,2013-06-03 13:19:00,
2013-06-03 08:24:00,49.3,25.4,30.11,ENE,68,4.7,6.5,39,0.00,,---,0.00,VWS V13.01,2013-06-03 13:24:00,
2013-06-03 08:29:00,49.6,25.7,30.11,NNE,22,5.6,5.6,39,0.00,,---,0.00,VWS V13.01,2013-06-03 13:29:00,
2013-06-03 08:34:00,49.8,25.9,30.11,ESE,111,4.0,4.0,39,0.00,,---,0.00,VWS V13.01,2013-06-03 13:34:00,
2013-06-03 08:39:00,50.0,25.4,30.11,East,89,3.6,4.0,38,0.00,,---,0.00,VWS V13.01,2013-06-03 13:39:00,
2013-06-03 08:45:00,50.4,25.7,30.11,ENE,58,0.0,4.0,38,0.00,,---,0.00,VWS V13.01,2013-06-03 13:45:00,
2013-06-03 08:50:00,50.7,26.0,30.11,ESE,107,4.5,4.5,38,0.00,,---,0.00,VWS V13.01,2013-06-03 13:50:00,
2013-06-03 08:55:00,51.3,26.5,30.11,ENE,58,3.1,4.5,38,0.00,,---,0.00,VWS V13.01,2013-06-03 13:55:00,
2013-06-03 09:00:00,51.4,26.0,30.11,NNE,30,4.5,4.5,37,0.00,,---,0.00,VWS V13.01,2013-06-03 14:00:00,
2013-06-03 09:05:00,51.6,26.2,30.11,ESE,114,0.0,4.0,37,0.00,,---,0.00,VWS V13.01,2013-06-03 14:05:00,
2013-06-03 09:10:00,52.0,26.5,30.11,NNE,20,2.7,4.0,37,0.00,,---,0.00,VWS V13.01,2013-06-03 14:10:00,
2013-06-03 09:15:00,52.2,26.0,30.14,South,181,2.7,4.5,36,0.00,,---,0.00,VWS V13.01,2013-06-03 14:15:00,
2013-06-03 09:20:00,52.3,26.2,30.14,East,89,4.5,4.5,36,0.00,,---,0.00,VWS V13.01,2013-06-03 14:20:00,
2013-06-03 09:25:00,52.7,26.5,30.14,NE,34,3.6,6.0,36,0.00,,---,0.00,VWS V13.01,2013-06-03 14:25:00,
2013-06-03 09:30:00,52.9,26.7,30.11,East,90,0.0,3.1,36,0.00,,---,0.00,VWS V13.01,2013-06-03 14:30:00,
2013-06-03 09:35:00,53.1,26.8,30.11,ENE,74,2.7,3.6,36,0.00,,---,0.00,VWS V13.01,2013-06-03 14:35:00,
2013-06-03 09:40:00,53.2,27.0,30.11,East,80,4.0,4.0,36,0.00,,---,0.00,VWS V13.01,2013-06-03 14:40:00,
2013-06-03 09:45:00,53.4,27.1,30.11,NNE,19,3.6,3.6,36,0.00,,---,0.00,VWS V13.01,2013-06-03 14:45:00,
2013-06-03 09:50:00,53.4,26.5,30.11,NNE,17,4.0,4.0,35,0.00,,---,0.00,VWS V13.01,2013-06-03 14:50:00,
2013-06-03 09:55:00,53.6,26.6,30.11,East,98,2.7,2.7,35,0.00,,---,0.00,VWS V13.01,2013-06-03 14:55:00,
2013-06-03 10:00:00,54.0,27.0,30.11,East,81,0.0,0.0,35,0.00,,---,0.00,VWS V13.01,2013-06-03 15:00:00,
2013-06-03 10:05:00,54.3,27.3,30.11,ESE,111,3.1,3.6,35,0.00,,---,0.00,VWS V13.01,2013-06-03 15:05:00,
2013-06-03 10:10:00,54.9,27.0,30.11,NE,48,3.6,4.7,34,0.00,,---,0.00,VWS V13.01,2013-06-03 15:10:00,
2013-06-03 10:15:00,54.9,26.3,30.11,NNE,16,3.1,5.1,33,0.00,,---,0.00,VWS V13.01,2013-06-03 15:15:00,
2013-06-03 10:20:00,55.0,26.5,30.11,East,101,0.0,5.1,33,0.00,,---,0.00,VWS V13.01,2013-06-03 15:20:00,
2013-06-03 10:25:00,55.2,26.6,30.11,ENE,65,0.0,0.0,33,0.00,,---,0.00,VWS V13.01,2013-06-03 15:25:00,
2013-06-03 10:31:00,55.4,26.0,30.14,ESE,109,3.6,4.5,32,0.00,,---,0.00,VWS V13.01,2013-06-03 15:31:00,
2013-06-03 10:36:00,55.6,26.2,30.14,ESE,112,3.1,4.7,32,0.00,,---,0.00,VWS V13.01,2013-06-03 15:36:00,
2013-06-03 10:41:00,55.6,25.5,30.14,South,179,4.0,4.0,31,0.00,,---,0.00,VWS V13.01,2013-06-03 15:41:00,
2013-06-03 10:46:00,55.6,26.2,30.14,East,81,2.7,4.7,32,0.00,,---,0.00,VWS V13.01,2013-06-03 15:46:00,
2013-06-03 10:51:00,55.9,25.0,30.14,NNE,33,5.1,5.1,30,0.00,,---,0.00,VWS V13.01,2013-06-03 15:51:00,
2013-06-03 10:56:00,55.8,24.8,30.14,ENE,65,3.6,4.7,30,0.00,,---,0.00,VWS V13.01,2013-06-03 15:56:00,
2013-06-03 11:01:00,55.8,24.8,30.14,ENE,69,4.0,5.6,30,0.00,,---,0.00,VWS V13.01,2013-06-03 16:01:00,
2013-06-03 11:06:00,55.8,24.8,30.14,ENE,64,4.7,4.7,30,0.00,,---,0.00,VWS V13.01,2013-06-03 16:06:00,
2013-06-03 11:11:00,55.8,24.8,30.14,NNE,17,3.1,4.7,30,0.00,,---,0.00,VWS V13.01,2013-06-03 16:11:00,
2013-06-03 11:16:00,55.9,25.0,30.14,SSE,168,0.0,3.6,30,0.00,,---,0.00,VWS V13.01,2013-06-03 16:16:00,
2013-06-03 11:21:00,56.3,25.3,30.14,ENE,72,4.5,5.6,30,0.00,,---,0.00,VWS V13.01,2013-06-03 16:21:00,
2013-06-03 11:26:00,56.7,25.6,30.14,ENE,59,4.0,5.1,30,0.00,,---,0.00,VWS V13.01,2013-06-03 16:26:00,
2013-06-03 11:31:00,56.7,24.8,30.14,ENE,63,0.0,2.7,29,0.00,,---,0.00,VWS V13.01,2013-06-03 16:31:00,
2013-06-03 11:36:00,56.8,25.8,30.14,SSE,158,4.0,4.0,30,0.00,,---,0.00,VWS V13.01,2013-06-03 16:36:00,
2013-06-03 11:42:00,56.8,24.9,30.14,East,91,0.0,0.0,29,0.00,,---,0.00,VWS V13.01,2013-06-03 16:42:00,
2013-06-03 11:47:00,56.8,25.8,30.14,SE,140,4.0,4.0,30,0.00,,---,0.00,VWS V13.01,2013-06-03 16:47:00,
2013-06-03 11:52:00,57.2,25.2,30.14,NNE,18,0.0,4.7,29,0.00,,---,0.00,VWS V13.01,2013-06-03 16:52:00,
2013-06-03 11:57:00,57.4,25.4,30.14,East,90,3.1,4.7,29,0.00,,---,0.00,VWS V13.01,2013-06-03 16:57:00,
2013-06-03 12:02:00,57.2,25.2,30.14,NE,36,4.7,5.1,29,0.00,,---,0.00,VWS V13.01,2013-06-03 17:02:00,
2013-06-03 12:07:00,57.2,25.2,30.14,NNE,19,0.0,3.6,29,0.00,,---,0.00,VWS V13.01,2013-06-03 17:07:00,
2013-06-03 12:12:00,56.8,24.9,30.14,East,88,3.6,4.5,29,0.00,,---,0.00,VWS V13.01,2013-06-03 17:12:00,
2013-06-03 12:17:00,56.7,24.8,30.14,ENE,59,4.7,5.6,29,0.00,,---,0.00,VWS V13.01,2013-06-03 17:17:00,
2013-06-03 12:22:00,56.7,24.8,30.14,West,280,0.0,3.1,29,0.00,,---,0.00,VWS V13.01,2013-06-03 17:22:00,
2013-06-03 12:27:00,57.2,25.2,30.14,East,93,3.6,3.6,29,0.00,,---,0.00,VWS V13.01,2013-06-03 17:27:00,
2013-06-03 12:32:00,57.7,25.7,30.14,ENE,58,3.6,4.7,29,0.00,,---,0.00,VWS V13.01,2013-06-03 17:32:00,
2013-06-03 12:37:00,57.6,25.6,30.14,SSE,149,6.0,6.0,29,0.00,,---,0.00,VWS V13.01,2013-06-03 17:37:00,
2013-06-03 12:42:00,57.7,25.7,30.11,South,175,5.6,5.6,29,0.00,,---,0.00,VWS V13.01,2013-06-03 17:42:00,
2013-06-03 12:47:00,58.5,26.3,30.11,East,86,3.1,5.6,29,0.00,,---,0.00,VWS V13.01,2013-06-03 17:47:00,
2013-06-03 12:52:00,59.0,26.0,30.11,SE,128,3.6,4.5,28,0.00,,---,0.00,VWS V13.01,2013-06-03 17:52:00,
2013-06-03 12:57:00,58.8,25.8,30.11,SSE,156,4.0,4.0,28,0.00,,---,0.00,VWS V13.01,2013-06-03 17:57:00,
2013-06-03 13:02:00,59.2,26.1,30.11,East,82,3.6,4.0,28,0.00,,---,0.00,VWS V13.01,2013-06-03 18:02:00,
2013-06-03 13:07:00,59.4,26.3,30.11,SSE,155,0.0,0.0,28,0.00,,---,0.00,VWS V13.01,2013-06-03 18:07:00,
2013-06-03 13:13:00,59.2,26.1,30.11,SSE,162,4.0,4.0,28,0.00,,---,0.00,VWS V13.01,2013-06-03 18:13:00,
2013-06-03 13:18:00,59.2,26.1,30.11,SSE,158,2.7,2.7,28,0.00,,---,0.00,VWS V13.01,2013-06-03 18:18:00,
2013-06-03 13:23:00,59.5,26.4,30.11,ENE,76,0.0,2.7,28,0.00,,---,0.00,VWS V13.01,2013-06-03 18:23:00,
2013-06-03 13:28:00,59.5,26.4,30.11,NE,35,0.0,0.0,28,0.00,,---,0.00,VWS V13.01,2013-06-03 18:28:00,
2013-06-03 13:33:00,59.7,25.7,30.11,NNW,343,4.7,6.0,27,0.00,,---,0.00,VWS V13.01,2013-06-03 18:33:00,
2013-06-03 13:38:00,60.1,26.9,30.11,NE,45,4.0,4.0,28,0.00,,---,0.00,VWS V13.01,2013-06-03 18:38:00,
2013-06-03 13:43:00,60.1,26.9,30.11,East,91,3.6,4.5,28,0.00,,---,0.00,VWS V13.01,2013-06-03 18:43:00,
2013-06-03 13:48:00,60.4,27.2,30.11,ENE,69,2.7,3.1,28,0.00,,---,0.00,VWS V13.01,2013-06-03 18:48:00,
2013-06-03 13:53:00,60.8,26.6,30.11,South,181,4.5,4.5,27,0.00,,---,0.00,VWS V13.01,2013-06-03 18:53:00,
2013-06-03 13:58:00,60.8,26.6,30.11,ESE,107,2.7,2.7,27,0.00,,---,0.00,VWS V13.01,2013-06-03 18:58:00,
2013-06-03 14:03:00,61.2,26.9,30.11,NE,42,5.1,5.1,27,0.00,,---,0.00,VWS V13.01,2013-06-03 19:03:00,
2013-06-03 14:08:00,61.0,26.8,30.11,ENE,69,0.0,0.0,27,0.00,,---,0.00,VWS V13.01,2013-06-03 19:08:00,
2013-06-03 14:13:00,61.5,27.2,30.11,East,90,0.0,3.6,27,0.00,,---,0.00,VWS V13.01,2013-06-03 19:13:00,
2013-06-03 14:18:00,61.7,27.4,30.11,SSE,168,4.7,4.7,27,0.00,,---,0.00,VWS V13.01,2013-06-03 19:18:00,
2013-06-03 14:23:00,61.9,27.6,30.11,East,83,5.6,5.6,27,0.00,,---,0.00,VWS V13.01,2013-06-03 19:23:00,
2013-06-03 14:28:00,61.9,26.6,30.11,East,91,3.6,3.6,26,0.00,,---,0.00,VWS V13.01,2013-06-03 19:28:00,
2013-06-03 14:33:00,61.9,26.6,30.11,ESE,105,5.1,5.1,26,0.00,,---,0.00,VWS V13.01,2013-06-03 19:33:00,
2013-06-03 14:39:00,62.2,27.9,30.11,East,89,4.5,4.5,27,0.00,,---,0.00,VWS V13.01,2013-06-03 19:39:00,
2013-06-03 14:44:00,62.2,27.0,30.11,NE,55,4.5,4.7,26,0.00,,---,0.00,VWS V13.01,2013-06-03 19:44:00,
2013-06-03 14:49:00,61.9,26.6,30.11,NE,45,4.7,4.7,26,0.00,,---,0.00,VWS V13.01,2013-06-03 19:49:00,
2013-06-03 14:54:00,61.7,27.4,30.11,ENE,77,4.0,4.0,27,0.00,,---,0.00,VWS V13.01,2013-06-03 19:54:00,
2013-06-03 14:59:00,61.3,27.1,30.11,East,79,0.0,4.5,27,0.00,,---,0.00,VWS V13.01,2013-06-03 19:59:00,
2013-06-03 15:04:00,61.3,27.1,30.11,NE,48,0.0,0.0,27,0.00,,---,0.00,VWS V13.01,2013-06-03 20:04:00,
2013-06-03 15:09:00,61.7,26.5,30.11,East,86,2.7,6.0,26,0.00,,---,0.00,VWS V13.01,2013-06-03 20:09:00,
2013-06-03 15:14:00,61.7,26.5,30.11,NE,38,3.1,3.1,26,0.00,,---,0.00,VWS V13.01,2013-06-03 20:14:00,
2013-06-03 15:19:00,61.3,26.2,30.11,ENE,72,3.1,3.6,26,0.00,,---,0.00,VWS V13.01,2013-06-03 20:19:00,
2013-06-03 15:24:00,61.0,25.9,30.11,East,85,0.0,0.0,26,0.00,,---,0.00,VWS V13.01,2013-06-03 20:24:00,
2013-06-03 15:30:00,61.0,25.9,30.11,North,9,4.7,6.5,26,0.00,,---,0.00,VWS V13.01,2013-06-03 20:30:00,
2013-06-03 15:35:00,60.8,26.6,30.11,SE,128,0.0,0.0,27,0.00,,---,0.00,VWS V13.01,2013-06-03 20:35:00,
2013-06-03 15:40:00,61.0,25.9,30.11,ENE,68,4.0,4.0,26,0.00,,---,0.00,VWS V13.01,2013-06-03 20:40:00,
2013-06-03 15:45:00,61.2,26.0,30.11,NW,310,0.0,3.1,26,0.00,,---,0.00,VWS V13.01,2013-06-03 20:45:00,
2013-06-03 15:50:00,61.5,26.3,30.11,East,97,4.5,4.5,26,0.00,,---,0.00,VWS V13.01,2013-06-03 20:50:00,
2013-06-03 15:55:00,61.7,26.5,30.11,NE,47,4.7,4.7,26,0.00,,---,0.00,VWS V13.01,2013-06-03 20:55:00,
2013-06-03 16:00:00,61.7,26.5,30.11,SE,128,4.5,4.5,26,0.00,,---,0.00,VWS V13.01,2013-06-03 21:00:00,
2013-06-03 16:05:00,61.5,26.3,30.11,ESE,112,3.6,3.6,26,0.00,,---,0.00,VWS V13.01,2013-06-03 21:05:00,
2013-06-03 16:10:00,61.3,26.2,30.11,NE,37,2.7,4.7,26,0.00,,---,0.00,VWS V13.01,2013-06-03 21:10:00,
2013-06-03 16:15:00,61.2,25.1,30.08,NNE,28,4.0,4.7,25,0.00,,---,0.00,VWS V13.01,2013-06-03 21:15:00,
2013-06-03 16:20:00,61.0,24.9,30.08,NE,38,6.0,6.0,25,0.00,,---,0.00,VWS V13.01,2013-06-03 21:20:00,
2013-06-03 16:25:00,60.4,24.5,30.08,ENE,70,3.1,4.7,25,0.00,,---,0.00,VWS V13.01,2013-06-03 21:25:00,
2013-06-03 16:30:00,60.4,24.5,30.08,ENE,76,4.0,4.7,25,0.00,,---,0.00,VWS V13.01,2013-06-03 21:30:00,
2013-06-03 16:35:00,60.3,24.3,30.08,East,91,3.1,4.5,25,0.00,,---,0.00,VWS V13.01,2013-06-03 21:35:00,
2013-06-03 16:40:00,59.7,23.9,30.08,ENE,68,3.6,4.7,25,0.00,,---,0.00,VWS V13.01,2013-06-03 21:40:00,
2013-06-03 16:45:00,59.5,23.7,30.08,NNE,19,4.7,6.5,25,0.00,,---,0.00,VWS V13.01,2013-06-03 21:45:00,
2013-06-03 16:50:00,59.4,23.6,30.08,NNE,23,5.1,5.6,25,0.00,,---,0.00,VWS V13.01,2013-06-03 21:50:00,
2013-06-03 16:55:00,59.0,23.2,30.08,ESE,112,2.7,4.7,25,0.00,,---,0.00,VWS V13.01,2013-06-03 21:55:00,
2013-06-03 17:00:00,59.0,23.2,30.11,NE,48,3.1,3.1,25,0.00,,---,0.00,VWS V13.01,2013-06-03 22:00:00,
2013-06-03 17:06:00,59.4,23.6,30.11,NE,49,4.0,4.0,25,0.00,,---,0.00,VWS V13.01,2013-06-03 22:06:00,
2013-06-03 17:11:00,59.5,23.7,30.11,ENE,70,4.7,5.1,25,0.00,,---,0.00,VWS V13.01,2013-06-03 22:11:00,
2013-06-03 17:16:00,59.7,23.9,30.08,NNE,27,3.6,4.7,25,0.00,,---,0.00,VWS V13.01,2013-06-03 22:16:00,
2013-06-03 17:21:00,59.4,22.6,30.08,NNE,32,3.6,3.6,24,0.00,,---,0.00,VWS V13.01,2013-06-03 22:21:00,
2013-06-03 17:26:00,59.0,22.3,30.08,NE,41,5.6,5.6,24,0.00,,---,0.00,VWS V13.01,2013-06-03 22:26:00,
2013-06-03 17:31:00,58.8,23.1,30.08,ENE,74,2.7,3.1,25,0.00,,---,0.00,VWS V13.01,2013-06-03 22:31:00,
2013-06-03 17:36:00,58.8,23.1,30.08,ENE,69,3.6,4.5,25,0.00,,---,0.00,VWS V13.01,2013-06-03 22:36:00,
2013-06-03 17:41:00,58.8,23.1,30.08,ESE,110,3.6,3.6,25,0.00,,---,0.00,VWS V13.01,2013-06-03 22:41:00,
2013-06-03 17:46:00,59.0,22.3,30.08,SE,124,4.0,4.0,24,0.00,,---,0.00,VWS V13.01,2013-06-03 22:46:00,
2013-06-03 17:51:00,59.4,22.6,30.08,NE,43,3.6,4.7,24,0.00,,---,0.00,VWS V13.01,2013-06-03 22:51:00,
2013-06-03 17:57:00,59.2,22.4,30.08,NE,54,4.0,4.5,24,0.00,,---,0.00,VWS V13.01,2013-06-03 22:57:00,
2013-06-03 18:02:00,58.8,23.1,30.08,ESE,112,4.5,4.5,25,0.00,,---,0.00,VWS V13.01,2013-06-03 23:02:00,
2013-06-03 18:07:00,58.3,21.7,30.08,ENE,61,0.0,0.0,24,0.00,,---,0.00,VWS V13.01,2013-06-03 23:07:00,
2013-06-03 18:12:00,58.1,21.5,30.08,ENE,71,0.0,0.0,24,0.00,,---,0.00,VWS V13.01,2013-06-03 23:12:00,
2013-06-03 18:17:00,57.9,22.3,30.08,NNE,19,0.0,0.0,25,0.00,,---,0.00,VWS V13.01,2013-06-03 23:17:00,
2013-06-03 18:22:00,57.7,22.2,30.08,NNE,13,0.0,0.0,25,0.00,,---,0.00,VWS V13.01,2013-06-03 23:22:00,
2013-06-03 18:27:00,57.7,22.2,30.08,NE,50,0.0,2.7,25,0.00,,---,0.00,VWS V13.01,2013-06-03 23:27:00,
2013-06-03 18:32:00,57.7,22.2,30.08,East,97,2.7,3.1,25,0.00,,---,0.00,VWS V13.01,2013-06-03 23:32:00,
2013-06-03 18:37:00,57.7,22.2,30.08,East,99,0.0,0.0,25,0.00,,---,0.00,VWS V13.01,2013-06-03 23:37:00,
2013-06-03 18:42:00,57.9,22.3,30.08,ENE,57,0.0,0.0,25,0.00,,---,0.00,VWS V13.01,2013-06-03 23:42:00,
2013-06-03 18:47:00,57.9,22.3,30.08,SE,140,0.0,0.0,25,0.00,,---,0.00,VWS V13.01,2013-06-03 23:47:00,
2013-06-03 18:52:00,57.9,22.3,30.08,SE,133,0.0,0.0,25,0.00,,---,0.00,VWS V13.01,2013-06-03 23:52:00,
2013-06-03 18:57:00,57.7,22.2,30.08,SE,133,0.0,0.0,25,0.00,,---,0.00,VWS V13.01,2013-06-03 23:57:00,
2013-06-03 19:02:00,57.6,22.0,30.08,East,86,0.0,0.0,25,0.00,,---,0.00,VWS V13.01,2013-06-04 00:02:00,
2013-06-03 19:07:00,57.2,21.7,30.08,ESE,108,0.0,0.0,25,0.00,,---,0.00,VWS V13.01,2013-06-04 00:07:00,
2013-06-03 19:12:00,57.2,21.7,30.08,ESE,108,0.0,0.0,25,0.00,,---,0.00,VWS V13.01,2013-06-04 00:12:00,
2013-06-03 19:18:00,57.2,21.7,30.08,SSE,162,0.0,0.0,25,0.00,,---,0.00,VWS V13.01,2013-06-04 00:18:00,
2013-06-03 19:22:00,57.2,21.7,30.08,NE,44,0.0,0.0,25,0.00,,---,0.00,VWS V13.01,2013-06-04 00:22:00,
2013-06-03 19:28:00,56.8,21.4,30.08,SE,143,0.0,0.0,25,0.00,,---,0.00,VWS V13.01,2013-06-04 00:28:00,
2013-06-03 19:33:00,56.7,22.2,30.08,SE,142,0.0,0.0,26,0.00,,---,0.00,VWS V13.01,2013-06-04 00:33:00,
2013-06-03 19:38:00,56.3,21.9,30.08,SE,142,0.0,0.0,26,0.00,,---,0.00,VWS V13.01,2013-06-04 00:38:00,
2013-06-03 19:43:00,55.9,21.6,30.08,SE,143,0.0,0.0,26,0.00,,---,0.00,VWS V13.01,2013-06-04 00:43:00,
2013-06-03 19:48:00,55.6,21.3,30.08,SE,143,0.0,0.0,26,0.00,,---,0.00,VWS V13.01,2013-06-04 00:48:00,
2013-06-03 19:53:00,55.2,21.8,30.08,SE,143,0.0,0.0,27,0.00,,---,0.00,VWS V13.01,2013-06-04 00:53:00,
2013-06-03 19:58:00,54.9,21.5,30.08,SE,142,0.0,0.0,27,0.00,,---,0.00,VWS V13.01,2013-06-04 00:58:00,
2013-06-03 20:03:00,54.5,22.1,30.08,SE,142,0.0,0.0,28,0.00,,---,0.00,VWS V13.01,2013-06-04 01:03:00,
2013-06-03 20:08:00,54.3,21.9,30.08,SE,142,0.0,0.0,28,0.00,,---,0.00,VWS V13.01,2013-06-04 01:08:00,
2013-06-03 20:13:00,54.0,21.6,30.08,SE,143,0.0,0.0,28,0.00,,---,0.00,VWS V13.01,2013-06-04 01:13:00,
2013-06-03 20:18:00,53.6,22.1,30.08,SE,143,0.0,0.0,29,0.00,,---,0.00,VWS V13.01,2013-06-04 01:18:00,
2013-06-03 20:24:00,53.4,22.8,30.08,SE,142,0.0,0.0,30,0.00,,---,0.00,VWS V13.01,2013-06-04 01:24:00,
2013-06-03 20:29:00,53.2,22.6,30.11,SE,143,0.0,0.0,30,0.00,,---,0.00,VWS V13.01,2013-06-04 01:29:00,
2013-06-03 20:34:00,53.1,22.5,30.11,SE,142,0.0,0.0,30,0.00,,---,0.00,VWS V13.01,2013-06-04 01:34:00,
2013-06-03 20:39:00,52.7,22.9,30.11,SE,142,0.0,0.0,31,0.00,,---,0.00,VWS V13.01,2013-06-04 01:39:00,
2013-06-03 20:44:00,52.3,23.4,30.11,SE,142,0.0,0.0,32,0.00,,---,0.00,VWS V13.01,2013-06-04 01:44:00,
2013-06-03 20:49:00,52.0,23.8,30.11,SE,142,0.0,0.0,33,0.00,,---,0.00,VWS V13.01,2013-06-04 01:49:00,
2013-06-03 20:54:00,51.8,25.7,30.11,SE,143,0.0,0.0,36,0.00,,---,0.00,VWS V13.01,2013-06-04 01:54:00,
2013-06-03 20:59:00,51.4,25.4,30.14,SE,142,0.0,0.0,36,0.00,,---,0.00,VWS V13.01,2013-06-04 01:59:00,
2013-06-03 21:04:00,51.3,25.2,30.14,SE,143,0.0,0.0,36,0.00,,---,0.00,VWS V13.01,2013-06-04 02:04:00,
2013-06-03 21:09:00,51.1,25.7,30.14,SE,142,0.0,0.0,37,0.00,,---,0.00,VWS V13.01,2013-06-04 02:09:00,
2013-06-03 21:14:00,50.9,25.6,30.14,SE,142,0.0,0.0,37,0.00,,---,0.00,VWS V13.01,2013-06-04 02:14:00,
2013-06-03 21:19:00,50.5,25.2,30.14,SE,143,0.0,0.0,37,0.00,,---,0.00,VWS V13.01,2013-06-04 02:19:00,
2013-06-03 21:24:00,50.2,24.9,30.14,SE,142,0.0,0.0,37,0.00,,---,0.00,VWS V13.01,2013-06-04 02:24:00,
2013-06-03 21:29:00,49.8,25.2,30.14,SE,142,0.0,0.0,38,0.00,,---,0.00,VWS V13.01,2013-06-04 02:29:00,
2013-06-03 21:34:00,49.8,25.2,30.14,SE,142,0.0,0.0,38,0.00,,---,0.00,VWS V13.01,2013-06-04 02:34:00,
2013-06-03 21:40:00,49.6,25.7,30.14,SE,143,0.0,0.0,39,0.00,,---,0.00,VWS V13.01,2013-06-04 02:40:00,
2013-06-03 21:44:00,49.6,25.7,30.14,SE,142,0.0,0.0,39,0.00,,---,0.00,VWS V13.01,2013-06-04 02:44:00,
2013-06-03 21:49:00,49.5,25.5,30.14,SE,142,0.0,0.0,39,0.00,,---,0.00,VWS V13.01,2013-06-04 02:49:00,
2013-06-03 21:55:00,49.5,26.2,30.14,SE,142,0.0,0.0,40,0.00,,---,0.00,VWS V13.01,2013-06-04 02:55:00,
2013-06-03 22:00:00,49.3,26.0,30.14,SE,143,0.0,0.0,40,0.00,,---,0.00,VWS V13.01,2013-06-04 03:00:00,
2013-06-03 22:05:00,49.3,26.0,30.14,SE,143,0.0,0.0,40,0.00,,---,0.00,VWS V13.01,2013-06-04 03:05:00,
2013-06-03 22:10:00,49.5,25.5,30.14,SE,142,0.0,0.0,39,0.00,,---,0.00,VWS V13.01,2013-06-04 03:10:00,
2013-06-03 22:15:00,49.8,25.9,30.14,SE,142,0.0,0.0,39,0.00,,---,0.00,VWS V13.01,2013-06-04 03:15:00,
2013-06-03 22:20:00,50.0,26.0,30.14,SE,143,0.0,0.0,39,0.00,,---,0.00,VWS V13.01,2013-06-04 03:20:00,
2013-06-03 22:25:00,50.0,26.0,30.14,SE,142,0.0,0.0,39,0.00,,---,0.00,VWS V13.01,2013-06-04 03:25:00,
2013-06-03 22:30:00,50.0,26.6,30.14,SE,143,0.0,0.0,40,0.00,,---,0.00,VWS V13.01,2013-06-04 03:30:00,
2013-06-03 22:35:00,50.0,27.8,30.14,SE,142,0.0,0.0,42,0.00,,---,0.00,VWS V13.01,2013-06-04 03:35:00,
2013-06-03 22:40:00,49.8,27.7,30.14,SE,142,0.0,0.0,42,0.00,,---,0.00,VWS V13.01,2013-06-04 03:40:00,
2013-06-03 22:45:00,49.6,27.5,30.14,SE,142,0.0,0.0,42,0.00,,---,0.00,VWS V13.01,2013-06-04 03:45:00,
2013-06-03 22:50:00,49.5,27.3,30.14,SE,142,0.0,0.0,42,0.00,,---,0.00,VWS V13.01,2013-06-04 03:50:00,
2013-06-03 22:55:00,49.3,26.0,30.14,SE,143,0.0,0.0,40,0.00,,---,0.00,VWS V13.01,2013-06-04 03:55:00,
2013-06-03 23:00:00,49.1,25.8,30.14,SE,142,0.0,0.0,40,0.00,,---,0.00,VWS V13.01,2013-06-04 04:00:00,
2013-06-03 23:01:00,49.1,25.8,30.14,SE,143,0.0,0.0,40,0.00,,---,0.00,VWS V13.01,2013-06-04 04:01:00,
2013-06-03 23:02:00,49.1,25.8,30.14,SE,142,0.0,0.0,40,0.00,,---,0.00,VWS V13.01,2013-06-04 04:02:00,
2013-06-03 23:03:00,49.1,25.8,30.14,SE,142,0.0,0.0,40,0.00,,---,0.00,VWS V13.01,2013-06-04 04:03:00,
2013-06-03 23:04:00,49.1,25.8,30.14,SE,142,0.0,0.0,40,0.00,,---,0.00,VWS V13.01,2013-06-04 04:04:00,
2013-06-03 23:09:00,48.9,26.3,30.14,SE,142,0.0,0.0,41,0.00,,---,0.00,VWS V13.01,2013-06-04 04:09:00,
2013-06-03 23:14:00,48.7,26.1,30.14,SE,143,0.0,0.0,41,0.00,,---,0.00,VWS V13.01,2013-06-04 04:14:00,
2013-06-03 23:19:00,48.7,26.1,30.14,SE,142,0.0,0.0,41,0.00,,---,0.00,VWS V13.01,2013-06-04 04:19:00,
2013-06-03 23:24:00,48.6,26.0,30.14,SE,142,0.0,0.0,41,0.00,,---,0.00,VWS V13.01,2013-06-04 04:24:00,
2013-06-03 23:29:00,48.4,26.4,30.14,SE,142,0.0,0.0,42,0.00,,---,0.00,VWS V13.01,2013-06-04 04:29:00,
2013-06-03 23:34:00,48.4,26.9,30.14,SE,143,0.0,0.0,43,0.00,,---,0.00,VWS V13.01,2013-06-04 04:34:00,
2013-06-03 23:39:00,48.2,26.8,30.14,SE,142,0.0,0.0,43,0.00,,---,0.00,VWS V13.01,2013-06-04 04:39:00,
2013-06-03 23:44:00,47.8,26.4,30.14,SE,142,0.0,0.0,43,0.00,,---,0.00,VWS V13.01,2013-06-04 04:44:00,
2013-06-03 23:49:00,47.7,26.3,30.14,SE,142,0.0,0.0,43,0.00,,---,0.00,VWS V13.01,2013-06-04 04:49:00,
2013-06-03 23:54:00,47.5,26.1,30.14,SE,142,0.0,0.0,43,0.00,,---,0.00,VWS V13.01,2013-06-04 04:54:00,
2013-06-03 23:59:00,47.3,25.4,30.14,SE,142,0.0,0.0,42,0.00,,---,0.00,VWS V13.01,2013-06-04 04:59:00,